MET994 - Hong Kong to Kuala Lumpur International Airport

Airbus A330-243
787MT
3 hrs 30 mins
1375 nm
Scheduled - M | TU | TH

Bid/PiRep Status

Bid was submitted on Jan 02 2017.

PiRep # 74577: Approved by Dave Nichols on January 3rd, 2017 5:15 UTC

Departure

Departing from
Hong Kong (HKG)
Departure gate
Terminal 1
Scheduled Departure
GMT 0715
Local 1515
METAR VHHH 242200Z 06005KT 9999 FEW017 SCT025 28/25 Q1004 NOSIG
TAF TAF VHHH 241700Z 2418/2524 11010KT 9999 FEW025 TX33/2506Z TN28/2422Z TN28/2522Z TEMPO 2418/2502 VRB05KT TEMPO 2502/2510 27010KT TEMPO 2514/2524 VRB05KT
  • No charts available

Arrival

Arriving at
Kuala Lumpur International Airport (KUL)
Arrival gate
Unassigned
Scheduled Arrival
GMT 1045
Local 1845
METAR WMKK 242200Z 10004KT 060V140 9000 FEW017CB SCT140 BKN280 26/24 Q1007 NOSIG
TAF TAF WMKK 241700Z 2418/2600 01005KT 8000 FEW017CB BKN280

Route Map

Planning Resources

PECA1A SIKOU A202 SAMAS G221 PCA TSN L637 BITOD IKUKO PULIP PULI1V
PECAN V10 ALLEY V31 SURFA V11 IDOSI A1 BUNTA G221 PCA W12 BMT W1 AC L644 CN L642 ENREP M763 TAXUL Y331 PIBOS
SANDI2A SANDI L642 ENREO M763 PIBOS PIBOSA
CH L642 VEPLI UGPEK VPK G584 VKL
PECAN1A PECAN V12 EPDOS L642 ENREP M763 TAXUL Y349 PULIP
Route:
OFP Layout:
Units:
Detailed Navlog:
ETOPS Planning:
Plan Stepclimbs:
Runway Analysis:
Include NOTAMS:
FIR NOTAMS:
Flight Maps:

Return Flights

MET995
Airbus A330-243
1145 GMT

Popularity

Hub Current Bids PiReps this month Total PiReps
KMCI 0 0 2
KLAX 0 0 3
KBOS 0 0 0